[[{"header":{"parameterUnit":"m.s-1","parameterCategory":1,"la1":30.2991,"la2":30.254,"lo1":-89.0895,"lo2":-89.0444,"dy":0.0017,"dx":0.0017,"nx":28,"ny":28,"refTime":"2024-07-10T09:00:00:Z","depth":0,"parameterNumber":2,"parameterNumberName":"U-component_of_WINDS"},"data":[0,0,0,0,0,0,0,0,0,0,0,0,0,0,0,0,0,0,0,0,0,0,0,0,0,0,0,0,0,0,0,0,0,0,0,0,0,0,0,0,0,0,0,0,0,0,0,0,0,0,0,0,0,0,0,0,0,0,1.5866,1.5866,0,1.5888,1.5888,1.5888,1.5871,1.5871,1.587,1.5869,1.5891,1.5893,1.5894,0,0,0,0,0,0,0,0,0,0,0,0,0,1.5808,1.5809,1.5865,1.5866,1.5866,1.5888,1.5888,1.5888,1.5872,1.5871,1.587,1.5869,1.5891,1.5892,1.5894,0,0,0,0,0,0,0,0,0,0,0,0,0,1.5832,1.5809,1.5865,1.586,1.586,1.5888,1.5888,1.5888,1.5872,1.5871,1.587,1.5869,1.589,1.5892,1.5894,1.5928,0,0,1.59,1.5901,0,0,0,0,0,0,0,0,1.583,1.5834,1.5861,1.5861,1.5861,1.5876,1.5876,1.5901,1.5872,1.5867,1.5869,1.5868,1.5887,1.5889,1.5896,1.5929,1.593,1.59,1.5901,1.5902,1.5903,0,0,0,0,0,0,0,1.5829,1.5833,1.5874,1.5861,1.5861,1.5857,1.5859,1.588,1.5883,1.5868,1.5866,1.5869,1.5887,1.5894,1.5896,1.593,1.59,1.5902,1.5903,1.5904,1.5991,1.5992,0,0,0,0,0,0,1.5828,1.5831,1.5874,1.5875,1.5842,1.5859,1.5861,1.5872,1.5883,1.5883,1.587,1.5869,1.5891,1.5894,1.5897,1.5936,1.5902,1.5904,1.5905,1.599,1.5991,1.5993,0,0,0,0,0,0,1.5826,1.5832,1.5873,1.5853,1.5858,1.5861,1.5873,1.5873,1.588,1.5885,1.5885,1.5877,1.589,1.5894,1.592,1.5937,1.5905,1.5906,1.5989,1.599,1.5992,1.6016,0,0,0,0,0,0,1.5825,1.5831,1.5844,1.5853,1.5859,1.5896,1.5874,1.5874,1.5883,1.5881,1.5891,1.5892,1.589,1.5917,1.5922,1.5939,1.5908,1.5987,1.5989,1.5992,1.6013,1.6018,1.6022,0,0,0,0,0,1.5823,1.585,1.5845,1.585,1.5875,1.5897,1.59,1.5897,1.5885,1.5898,1.5901,1.5891,1.5934,1.592,1.5925,1.5943,1.5986,1.5989,1.5991,1.6011,1.6017,1.6022,0,0,0,0,0,0,1.5842,1.5851,1.5845,1.5876,1.5886,1.5894,1.591,1.5903,1.5917,1.5914,1.591,1.5912,1.594,1.5944,1.5928,1.5976,1.5958,1.5962,1.5972,1.5977,1.5981,1.5979,1.5909,0,0,0,0,0,1.585,1.5867,1.5874,1.59,1.5905,1.5907,1.5916,1.5913,1.5923,1.5927,1.5932,1.5942,1.5957,1.5968,1.5982,1.6014,1.6016,1.6029,1.6033,1.6037,1.604,1.6057,1.6063,1.6002,1.6001,1.6001,0,0,1.5866,1.5873,1.5884,1.5904,1.5911,1.5929,1.591,1.593,1.5943,1.593,1.5955,1.5959,1.5969,1.5998,1.6011,1.6003,1.6057,1.604,1.6043,1.6044,1.606,1.6066,1.6071,1.6003,1.6003,1.6003,0,0,1.5904,1.5911,1.5934,1.5942,1.5953,1.5954,1.596,1.5969,1.5971,1.5996,1.5987,1.6002,1.6029,1.6037,1.6045,1.6086,1.6078,1.6091,1.6114,1.613,1.6135,1.6139,1.6154,1.6159,1.6095,1.6095,1.6095,0,1.5922,1.5949,1.5946,1.5967,1.5976,1.5966,1.5988,1.5996,1.6011,1.6018,1.6008,1.6042,1.6048,1.6079,1.6089,1.6096,1.6101,1.609,1.6135,1.6139,1.6143,1.6156,1.6162,1.6096,1.6096,1.6096,1.6096,0,1.5971,1.5989,1.6006,1.6022,1.6033,1.6054,1.6055,1.6066,1.6063,1.6065,1.609,1.6097,1.6113,1.6121,1.6117,1.6151,1.6145,1.6135,1.6117,1.615,1.6163,1.6168,1.6098,1.6098,1.6097,1.6097,0,0,1.602,1.6035,1.6041,1.6048,1.606,1.6074,1.6095,1.6111,1.6121,1.6132,1.6149,1.6173,1.6164,1.6172,1.617,1.6184,1.6217,1.6173,1.6173,1.618,1.6253,1.626,1.6266,1.6212,1.6213,1.6213,1.6252,0,1.6059,1.6096,1.6094,1.6128,1.6145,1.6137,1.6155,1.6164,1.6167,1.6181,1.6184,1.62,1.6187,1.6192,1.6206,1.621,1.6231,1.6207,1.6227,1.6228,1.6224,1.6273,1.628,1.6317,1.6257,1.6258,1.6259,0,1.6108,1.6122,1.6158,1.6168,1.6175,1.6191,1.6205,1.622,1.623,1.6231,1.6241,1.6236,1.6257,1.6239,1.6268,1.6251,1.6259,1.6262,1.6264,1.6265,1.6245,1.6275,1.6328,1.6333,1.6267,1.6266,1.6266,0,1.614,1.6167,1.6192,1.6199,1.6211,1.6223,1.6228,1.6238,1.6247,1.626,1.6266,1.6281,1.6289,1.63,1.63,1.6287,1.6329,1.6311,1.6329,1.6329,1.6338,1.6337,1.6392,1.6344,1.6344,1.6344,1.6344,0,1.6183,1.6205,1.6207,1.6222,1.6247,1.6245,1.6269,1.6274,1.6282,1.6298,1.6291,1.6306,1.6305,1.6319,1.6319,1.6342,1.6346,1.6347,1.6347,1.6347,1.6347,1.6352,1.6349,1.6346,1.6345,1.6345,1.6345,0,1.6222,1.6224,1.6251,1.6261,1.6264,1.6281,1.6289,1.6304,1.6306,1.6326,1.6331,1.6334,1.6351,1.6352,1.6372,1.6371,1.64,1.6397,1.6396,1.6395,1.6413,1.6411,1.6473,1.6481,1.6429,1.6429,1.643,0,1.6248,1.6265,1.6277,1.6288,1.6294,1.6311,1.6321,1.632,1.6331,1.6344,1.6357,1.6373,1.6386,1.6414,1.6418,1.6433,1.643,1.6451,1.6432,1.6432,1.643,1.6428,1.643,1.6454,1.6455,1.6455,1.6456,0,1.6295,1.6296,1.6311,1.6326,1.6339,1.6351,1.6362,1.6371,1.6371,1.6383,1.6401,1.6411,1.6432,1.6448,1.6463,1.6468,1.6462,1.6462,1.6466,1.6467,1.6465,1.6466,1.6405,1.646,1.6459,1.6459,1.6459,1.6459,1.6328,1.6343,1.6354,1.6371,1.6379,1.639,1.6404,1.6408,1.6423,1.644,1.6439,1.6458,1.6468,1.6487,1.6494,1.6509,1.6502,1.6509,1.6511,1.6512,1.6514,1.6464,1.6512,1.6511,1.6511,1.6511,1.6511,0,1.6374,1.638,1.6396,1.6413,1.6426,1.642,1.6432,1.6443,1.6461,1.6471,1.6484,1.6504,1.652,1.6526,1.6541,1.6552,1.655,1.6556,1.6555,1.6556,1.652,1.6513,1.6558,1.6558,1.6558,1.6558,1.6558,1.6558,1.6399,1.6423,1.6425,1.6454,1.646,1.648,1.6487,1.6497,1.6505,1.6528,1.6541,1.6545,1.6554,1.657,1.6584,1.6585,1.6591,1.6598,1.6598,1.6564,1.6559,1.6554,1.6549,1.66,1.66,1.6633,1.6634,1.6634]},{"header":{"parameterUnit":"m.s-1","parameterCategory":1,"la1":30.2991,"la2":30.254,"lo1":-89.0895,"lo2":-89.0444,"dy":0.0017,"dx":0.0017,"nx":28,"ny":28,"refTime":"2024-07-10T09:00:00:Z","depth":0,"parameterNumber":3,"parameterNumberName":"V-component_of_WINDS"},"data":[0,0,0,0,0,0,0,0,0,0,0,0,0,0,0,0,0,0,0,0,0,0,0,0,0,0,0,0,0,0,0,0,0,0,0,0,0,0,0,0,0,0,0,0,0,0,0,0,0,0,0,0,0,0,0,0,0,0,2.4497,2.4497,0,2.4505,2.4505,2.4505,2.4522,2.4523,2.4523,2.4523,2.4528,2.4528,2.4528,0,0,0,0,0,0,0,0,0,0,0,0,0,2.4493,2.4493,2.4497,2.4497,2.4497,2.4505,2.4505,2.4505,2.4522,2.4523,2.4523,2.4523,2.4528,2.4528,2.4528,0,0,0,0,0,0,0,0,0,0,0,0,0,2.4497,2.4493,2.4497,2.4507,2.4508,2.4505,2.4505,2.4505,2.4522,2.4523,2.4523,2.4524,2.4528,2.4528,2.4528,2.4515,0,0,2.4527,2.4527,0,0,0,0,0,0,0,0,2.4497,2.4497,2.4505,2.4506,2.4507,2.4513,2.4505,2.4508,2.4522,2.4517,2.4523,2.4524,2.4523,2.4523,2.4523,2.4516,2.4516,2.4527,2.4527,2.4527,2.4527,0,0,0,0,0,0,0,2.4496,2.4497,2.45,2.4505,2.4507,2.4509,2.4511,2.4506,2.4516,2.4517,2.4518,2.4519,2.4523,2.4523,2.4523,2.4516,2.4527,2.4527,2.4527,2.4526,2.4496,2.4495,0,0,0,0,0,0,2.4495,2.4497,2.45,2.45,2.4503,2.4509,2.451,2.4511,2.4517,2.4518,2.4519,2.452,2.4524,2.4524,2.4524,2.4508,2.4527,2.4526,2.4526,2.4497,2.4496,2.4495,0,0,0,0,0,0,2.4495,2.4495,2.45,2.4499,2.45,2.4509,2.4509,2.4511,2.4511,2.4518,2.4519,2.4517,2.4524,2.4524,2.4517,2.4508,2.4526,2.4526,2.4497,2.4496,2.4496,2.4477,0,0,0,0,0,0,2.4495,2.4495,2.4492,2.4499,2.45,2.4494,2.4508,2.451,2.451,2.4512,2.4517,2.4518,2.4524,2.4517,2.4517,2.4508,2.4526,2.4498,2.4497,2.4496,2.4479,2.4476,2.4474,0,0,0,0,0,2.4495,2.4486,2.4492,2.4492,2.4496,2.4494,2.4494,2.4503,2.451,2.4505,2.451,2.4518,2.4509,2.4516,2.4516,2.4507,2.4499,2.4497,2.4496,2.448,2.4477,2.4474,0,0,0,0,0,0,2.4478,2.4487,2.4493,2.4487,2.4489,2.4497,2.4492,2.4499,2.4499,2.45,2.4509,2.451,2.4501,2.4504,2.4511,2.4494,2.4505,2.4504,2.4493,2.449,2.4488,2.4487,2.4526,0,0,0,0,0,2.4473,2.4472,2.448,2.4474,2.4475,2.4483,2.4482,2.4488,2.4491,2.4492,2.4496,2.4497,2.4494,2.4492,2.449,2.4479,2.4479,2.4473,2.447,2.4468,2.4466,2.4458,2.4455,2.449,2.449,2.4491,0,0,2.4464,2.4469,2.4468,2.447,2.4473,2.447,2.4484,2.448,2.4478,2.4491,2.4485,2.4487,2.4489,2.4479,2.4475,2.4481,2.4456,2.4466,2.4464,2.4464,2.4456,2.4453,2.445,2.449,2.449,2.449,0,0,2.4446,2.445,2.4444,2.4446,2.445,2.4455,2.4454,2.446,2.4462,2.4456,2.4465,2.4461,2.4457,2.4457,2.4457,2.4436,2.4443,2.4435,2.4421,2.4413,2.4411,2.4408,2.4399,2.4396,2.4433,2.4433,2.4433,0,2.4434,2.4431,2.444,2.4436,2.4436,2.4448,2.4442,2.4443,2.4445,2.4444,2.4451,2.4444,2.4446,2.4436,2.4431,2.443,2.4428,2.4435,2.441,2.4408,2.4406,2.4397,2.4394,2.4432,2.4432,2.4433,2.4433,0,2.4415,2.4413,2.4407,2.441,2.4409,2.4404,2.4411,2.4409,2.4414,2.4418,2.441,2.4413,2.4411,2.4409,2.4414,2.4398,2.4402,2.4409,2.442,2.4401,2.4393,2.439,2.4431,2.4431,2.4431,2.4432,0,0,2.4387,2.4394,2.4392,2.4392,2.4396,2.4394,2.4388,2.4387,2.4384,2.4384,2.4379,2.4374,2.438,2.4379,2.4385,2.4378,2.4359,2.4386,2.4386,2.438,2.434,2.4334,2.433,2.4364,2.4363,2.4363,2.4339,0,2.4369,2.4361,2.4368,2.4358,2.4355,2.4365,2.4359,2.436,2.4363,2.4359,2.4362,2.4358,2.4367,2.4367,2.4361,2.4363,2.4351,2.4365,2.4357,2.4356,2.4356,2.4326,2.4321,2.4299,2.4336,2.4336,2.4336,0,2.4348,2.4348,2.4337,2.434,2.4339,2.4334,2.4332,2.4329,2.4329,2.4332,2.433,2.4336,2.4328,2.4339,2.4328,2.4337,2.4334,2.4334,2.4333,2.4333,2.4345,2.4324,2.4292,2.4288,2.4331,2.4332,2.4332,0,2.4328,2.4325,2.4317,2.4317,2.4321,2.4317,2.4318,2.4319,2.4317,2.4315,2.4313,2.431,2.4308,2.4304,2.4308,2.4316,2.4295,2.4307,2.4296,2.4295,2.4291,2.4291,2.4257,2.429,2.429,2.429,2.429,0,2.4307,2.4299,2.4308,2.4304,2.4295,2.4302,2.4293,2.4295,2.4295,2.429,2.4298,2.4292,2.4299,2.4293,2.4296,2.4285,2.4284,2.4285,2.4285,2.4284,2.4283,2.4282,2.4283,2.4289,2.4289,2.4289,2.4289,0,2.4283,2.4289,2.4281,2.4285,2.4285,2.4279,2.4281,2.4276,2.4278,2.4271,2.427,2.4274,2.4268,2.4271,2.4265,2.4267,2.4252,2.4255,2.4252,2.4253,2.4241,2.4242,2.4204,2.4199,2.4235,2.4235,2.4235,0,2.4269,2.4264,2.4267,2.4264,2.4265,2.426,2.4258,2.4264,2.4261,2.426,2.4254,2.4249,2.4245,2.4234,2.4235,2.4229,2.4232,2.4219,2.4231,2.4229,2.423,2.4231,2.4229,2.4217,2.4216,2.4216,2.4216,0,2.4244,2.4246,2.4244,2.4241,2.4238,2.4237,2.4235,2.4232,2.4238,2.4234,2.4228,2.4225,2.4218,2.4211,2.4206,2.4205,2.421,2.4212,2.4209,2.4207,2.4205,2.4204,2.4245,2.4213,2.4213,2.4213,2.4213,2.4213,2.4224,2.4219,2.422,2.4216,2.4215,2.4213,2.4208,2.421,2.4205,2.4201,2.4204,2.4196,2.4194,2.4188,2.4186,2.4178,2.4183,2.4179,2.4178,2.4177,2.4175,2.4206,2.4178,2.4178,2.4178,2.4178,2.4178,0,2.4198,2.4199,2.4195,2.4193,2.4189,2.4195,2.4193,2.4189,2.4183,2.4181,2.4176,2.4168,2.4161,2.4161,2.4154,2.4148,2.415,2.4146,2.4147,2.4146,2.4171,2.4174,2.4144,2.4144,2.4144,2.4144,2.4144,2.4144,2.4185,2.4176,2.4178,2.4168,2.4169,2.4162,2.416,2.4157,2.4156,2.4146,2.4141,2.4141,2.4139,2.4132,2.4125,2.4125,2.4122,2.4117,2.4117,2.4141,2.4144,2.4147,2.415,2.4116,2.4116,2.4092,2.4092,2.4092]}]]